Location: Casilda
(33.0440°S, 61.1680°W)
Time: 14:32:17
(UTC-03:00)

ISS - Pass Details

Date: 23 June 2017
Orbit: 401 x 408 km, 51.6° (Epoch: 28 June)

Event Time Altitude Azimuth Distance (km) Brightness Sun altitude
Exits shadow 06:31:42 10° 340° (NNW) 1,430 -1.1 -19.5°
Drops below altitude 10° 06:31:47 10° 341° (NNW) 1,449 -1.1 -19.5°
Sets 06:34:33 0° 7° (N) 2,305 0.3 -19.0°
